sat.trackr.live / text

‹ back to catalog

UNKNOWN

NORAD 82205

UNKNOWN UNKNOWN UNKNOWN

§ Identity

Operator
Country
Launch date
Launch site
Launch vehicle
Mass (kg)
RCS (m²)

External: N2YO · Heavens-Above

§ Orbital elements

Epoch: 2026-09-18T08:10:53.345280Z

Period
103.25 min
Inclination
63.0062°
Eccentricity
0.0507399
Mean motion
13.94682609 rev/d
Perigee alt
542.4 km
Apogee alt
1,282.2 km
Semi-major
7,290.4 km
B*
5.0706e-4
RAAN
170.4195°
Arg perigee
321.4440°
Mean anomaly
35.1358°
Rev number
64,698

§ Raw data

UNKNOWN1 82205U          26261.34089520  .00001885  00000+0  50706-3 0  99972 82205  63.0062 170.4195 0507399 321.4440  35.1358 13.94682609646980

JSON: /api/v1/satellites/82205 · /tle

For live sub-satellite position, see the globe view (requires WebGL).

§ Visibility from observer

Set your observer location to see the next 7 days of passes ≥ 10°. The values pass through the URL so the page stays shareable.

No JS? Fill the form by hand. The geolocation button needs JavaScript.